[[{"header":{"parameterUnit":"m.s-1","parameterCategory":2,"la1":30.2991,"la2":30.254,"lo1":-89.0895,"lo2":-89.0444,"dy":0.0017,"dx":0.0017,"nx":28,"ny":28,"refTime":"2024-04-13T21:00:00:Z","depth":"0","parameterNumber":2,"parameterNumberName":"U-component_of_CURRENTS"},"data":[0,0,0,0,0,0,0,0,0,0,0,0,0,0,0,0,0,0,0,0,0,0,0,0,0,0,0,0,0,0,0,0,0,0,0,0,0,0,0,0,0,0,0,0,0,0,0,0,0,0,0,0,0,0,0,0,0,0,-0.2885,-0.2886,0,-0.2928,-0.2928,-0.2927,-0.2966,-0.2967,-0.2968,-0.2969,-0.2874,-0.2871,-0.2867,0,0,0,0,0,0,0,0,0,0,0,0,0,-0.2769,-0.2771,-0.2885,-0.2886,-0.2887,-0.2928,-0.2928,-0.2927,-0.2966,-0.2967,-0.2968,-0.297,-0.2875,-0.2871,-0.2867,0,0,0,0,0,0,0,0,0,0,0,0,0,-0.281,-0.2771,-0.2885,-0.2916,-0.292,-0.2928,-0.2928,-0.2927,-0.2966,-0.2967,-0.2969,-0.297,-0.2877,-0.2871,-0.2866,-0.28,0,0,-0.285,-0.2848,0,0,0,0,0,0,0,0,-0.2807,-0.2813,-0.2911,-0.2914,-0.2919,-0.2949,-0.2853,-0.288,-0.2965,-0.2941,-0.2969,-0.2971,-0.289,-0.2884,-0.288,-0.2795,-0.2791,-0.2849,-0.2846,-0.2844,-0.2842,0,0,0,0,0,0,0,-0.2805,-0.2811,-0.2894,-0.2912,-0.2917,-0.2906,-0.2914,-0.2858,-0.2897,-0.2943,-0.2948,-0.2963,-0.289,-0.2885,-0.2878,-0.279,-0.285,-0.2845,-0.2841,-0.2839,-0.2735,-0.2736,0,0,0,0,0,0,-0.2816,-0.2809,-0.2893,-0.2897,-0.2874,-0.2908,-0.2916,-0.2932,-0.2901,-0.2901,-0.2962,-0.2965,-0.2893,-0.2884,-0.2874,-0.2855,-0.2844,-0.2839,-0.2836,-0.2735,-0.2735,-0.2736,0,0,0,0,0,0,-0.2813,-0.2823,-0.2892,-0.2859,-0.2868,-0.2909,-0.2926,-0.2932,-0.2926,-0.2918,-0.2915,-0.2951,-0.2894,-0.2882,-0.2839,-0.285,-0.2836,-0.2832,-0.2734,-0.2735,-0.2736,-0.2778,0,0,0,0,0,0,-0.2809,-0.2821,-0.2809,-0.286,-0.2871,-0.2879,-0.2926,-0.2932,-0.2937,-0.2941,-0.2907,-0.2901,-0.2895,-0.2847,-0.2834,-0.2842,-0.2827,-0.2734,-0.2735,-0.2735,-0.2776,-0.278,-0.2783,0,0,0,0,0,-0.2805,-0.2777,-0.2808,-0.2818,-0.2862,-0.2878,-0.2879,-0.291,-0.2934,-0.2912,-0.2916,-0.2902,-0.2844,-0.2842,-0.2826,-0.2834,-0.2733,-0.2734,-0.2735,-0.2774,-0.2779,-0.2783,0,0,0,0,0,0,-0.2692,-0.2781,-0.2816,-0.281,-0.284,-0.2887,-0.2864,-0.2898,-0.2883,-0.2883,-0.2884,-0.2876,-0.2851,-0.2827,-0.2825,-0.281,-0.2794,-0.2792,-0.2829,-0.2833,-0.2836,-0.2839,-0.2823,0,0,0,0,0,-0.2672,-0.269,-0.2762,-0.275,-0.2766,-0.2814,-0.2818,-0.2847,-0.2859,-0.2856,-0.285,-0.2843,-0.284,-0.2824,-0.2802,-0.2767,-0.2743,-0.2769,-0.2773,-0.2776,-0.277,-0.2758,-0.276,-0.2739,-0.2739,-0.2739,0,0,-0.2629,-0.2675,-0.2685,-0.2729,-0.2754,-0.279,-0.2817,-0.2818,-0.2852,-0.284,-0.2847,-0.2837,-0.2833,-0.2822,-0.2809,-0.2802,-0.2768,-0.2778,-0.2781,-0.2772,-0.2759,-0.2761,-0.2763,-0.274,-0.274,-0.274,0,0,-0.2575,-0.2589,-0.2609,-0.2641,-0.2689,-0.2726,-0.2729,-0.2777,-0.2793,-0.2797,-0.2823,-0.2823,-0.2793,-0.2817,-0.2823,-0.2822,-0.2786,-0.2815,-0.2832,-0.2821,-0.2823,-0.2824,-0.2788,-0.2785,-0.282,-0.282,-0.282,0,-0.2525,-0.2566,-0.2602,-0.2638,-0.2668,-0.2708,-0.2739,-0.2759,-0.2789,-0.2801,-0.2799,-0.2813,-0.2803,-0.2832,-0.285,-0.2831,-0.2804,-0.2818,-0.2826,-0.2827,-0.2827,-0.279,-0.2787,-0.2822,-0.2822,-0.2821,-0.2821,0,-0.2518,-0.2547,-0.2546,-0.2633,-0.2654,-0.2666,-0.2735,-0.2742,-0.2769,-0.2806,-0.2815,-0.2815,-0.283,-0.2838,-0.2843,-0.2856,-0.2828,-0.2831,-0.2815,-0.2832,-0.2791,-0.2787,-0.2825,-0.2824,-0.2824,-0.2823,0,0,-0.2431,-0.2534,-0.2534,-0.258,-0.2655,-0.2673,-0.2718,-0.2772,-0.2804,-0.2816,-0.2849,-0.2867,-0.2864,-0.2871,-0.2879,-0.2876,-0.2862,-0.2853,-0.2852,-0.2817,-0.2811,-0.2726,-0.2712,-0.2862,-0.2862,-0.2862,-0.2778,0,-0.2423,-0.2489,-0.2546,-0.2599,-0.264,-0.2696,-0.274,-0.2786,-0.2816,-0.2845,-0.286,-0.2877,-0.2881,-0.2884,-0.2886,-0.2871,-0.2853,-0.2882,-0.2799,-0.2796,-0.2719,-0.2706,-0.2582,-0.2491,-0.2774,-0.2773,-0.2773,0,-0.2412,-0.2462,-0.2521,-0.2611,-0.2631,-0.2668,-0.2734,-0.2776,-0.2831,-0.285,-0.2874,-0.2885,-0.29,-0.289,-0.2864,-0.2878,-0.2841,-0.2822,-0.2819,-0.2719,-0.2703,-0.2522,-0.2472,-0.2446,-0.2766,-0.2766,-0.2767,0,-0.2347,-0.244,-0.2483,-0.2516,-0.2624,-0.2649,-0.2695,-0.2764,-0.2797,-0.2842,-0.2856,-0.2882,-0.2873,-0.2855,-0.2827,-0.2838,-0.2775,-0.2789,-0.2673,-0.2666,-0.2532,-0.2513,-0.2445,-0.2749,-0.2749,-0.275,-0.275,0,-0.2323,-0.2354,-0.2454,-0.248,-0.2522,-0.2604,-0.2645,-0.2697,-0.276,-0.2782,-0.284,-0.2848,-0.286,-0.2838,-0.2815,-0.272,-0.2762,-0.2658,-0.2637,-0.2541,-0.2525,-0.2474,-0.2519,-0.2746,-0.2747,-0.2748,-0.2748,0,-0.2253,-0.2322,-0.2377,-0.2475,-0.2498,-0.2522,-0.2614,-0.2635,-0.2707,-0.2732,-0.2741,-0.2802,-0.2766,-0.2764,-0.2721,-0.2677,-0.2567,-0.2573,-0.2447,-0.2413,-0.2273,-0.2325,-0.2246,-0.218,-0.2422,-0.2419,-0.2417,0,-0.2228,-0.2249,-0.2347,-0.2362,-0.2403,-0.2453,-0.2478,-0.2582,-0.2611,-0.2694,-0.2688,-0.269,-0.2656,-0.2573,-0.2501,-0.2415,-0.2448,-0.226,-0.2265,-0.2228,-0.2273,-0.232,-0.2275,-0.2101,-0.2097,-0.2093,-0.209,0,-0.2161,-0.2195,-0.223,-0.2273,-0.2301,-0.234,-0.2388,-0.2414,-0.2512,-0.2535,-0.2543,-0.2526,-0.2456,-0.232,-0.2227,-0.2173,-0.2203,-0.2177,-0.2174,-0.2036,-0.2048,-0.1985,-0.2192,-0.2056,-0.206,-0.2062,-0.2064,-0.2065,-0.208,-0.2089,-0.2129,-0.2155,-0.2182,-0.2189,-0.217,-0.2229,-0.2245,-0.2239,-0.2328,-0.2259,-0.2201,-0.2045,-0.1979,-0.1831,-0.1936,-0.1782,-0.1852,-0.1905,-0.1831,-0.195,-0.1777,-0.1779,-0.1781,-0.1782,-0.1783,0,-0.1968,-0.1984,-0.2005,-0.2023,-0.1989,-0.2053,-0.2067,-0.2015,-0.1968,-0.2014,-0.1984,-0.1953,-0.18,-0.1767,-0.1633,-0.1543,-0.1512,-0.1522,-0.1565,-0.1536,-0.1643,-0.1616,-0.1357,-0.1357,-0.1357,-0.1357,-0.1357,-0.1357,-0.1904,-0.1879,-0.19,-0.1811,-0.1808,-0.171,-0.1678,-0.1627,-0.1629,-0.1572,-0.1585,-0.1636,-0.1641,-0.1704,-0.1541,-0.1446,-0.1433,-0.1378,-0.1435,-0.1529,-0.1559,-0.1588,-0.1569,-0.1305,-0.1305,-0.1233,-0.1233,-0.1233]},{"header":{"parameterUnit":"m.s-1","parameterCategory":2,"la1":30.2991,"la2":30.254,"lo1":-89.0895,"lo2":-89.0444,"dy":0.0017,"dx":0.0017,"nx":28,"ny":28,"refTime":"2024-04-13T21:00:00:Z","depth":"0","parameterNumber":3,"parameterNumberName":"V-component_of_CURRENTS"},"data":[0,0,0,0,0,0,0,0,0,0,0,0,0,0,0,0,0,0,0,0,0,0,0,0,0,0,0,0,0,0,0,0,0,0,0,0,0,0,0,0,0,0,0,0,0,0,0,0,0,0,0,0,0,0,0,0,0,0,-0.025,-0.0248,0,-0.0116,-0.0114,-0.0113,-0.0025,-0.0024,-0.0024,-0.0023,0.0106,0.0109,0.0112,0,0,0,0,0,0,0,0,0,0,0,0,0,-0.0374,-0.0373,-0.025,-0.0248,-0.0247,-0.0116,-0.0114,-0.0113,-0.0025,-0.0024,-0.0024,-0.0023,0.0105,0.0109,0.0112,0,0,0,0,0,0,0,0,0,0,0,0,0,-0.0289,-0.0372,-0.025,-0.0187,-0.018,-0.0117,-0.0114,-0.0112,-0.0025,-0.0024,-0.0023,-0.0023,0.0104,0.0108,0.0113,0.0122,0,0,0.0126,0.0128,0,0,0,0,0,0,0,0,-0.0294,-0.0284,-0.0198,-0.0191,-0.0183,-0.0086,-0.0111,-0.0034,-0.0025,-0.0084,-0.0023,-0.0022,0.0041,0.005,0.0074,0.0128,0.0134,0.0126,0.0129,0.0131,0.0132,0,0,0,0,0,0,0,-0.03,-0.0289,-0.0197,-0.0196,-0.0187,-0.0147,-0.0134,-0.0095,-0.0028,-0.0079,-0.0072,-0.0058,0.0045,0.0069,0.0077,0.0136,0.0126,0.013,0.0133,0.0134,0.022,0.022,0,0,0,0,0,0,-0.032,-0.0295,-0.0201,-0.0193,-0.0238,-0.0145,-0.0131,-0.0118,-0.0028,-0.0014,-0.0058,-0.0054,0.0061,0.0072,0.0082,0.0096,0.0131,0.0135,0.0137,0.0221,0.022,0.022,0,0,0,0,0,0,-0.0323,-0.0313,-0.0206,-0.0241,-0.0224,-0.0145,-0.013,-0.0116,-0.0091,-0.0013,0.0002,-0.0048,0.0063,0.0076,0.0114,0.0102,0.0137,0.0141,0.0221,0.0221,0.022,0.0126,0,0,0,0,0,0,-0.0327,-0.0315,-0.0316,-0.0242,-0.0223,-0.0179,-0.0131,-0.0114,-0.0083,-0.0076,0.0001,0.0014,0.0064,0.0107,0.0119,0.0109,0.0144,0.0222,0.0221,0.022,0.013,0.0123,0.0117,0,0,0,0,0,-0.0332,-0.0335,-0.0317,-0.0305,-0.0226,-0.018,-0.0167,-0.0107,-0.0084,-0.008,-0.0025,0.0012,0.0112,0.011,0.0124,0.0115,0.0222,0.0221,0.022,0.0133,0.0124,0.0117,0,0,0,0,0,0,-0.0385,-0.0324,-0.0303,-0.0286,-0.0243,-0.0165,-0.0154,-0.0117,-0.007,-0.0064,0.0008,0.0024,0.0055,0.0096,0.0093,0.0139,0.0172,0.0174,0.0102,0.0094,0.0087,0.0078,0.0148,0,0,0,0,0,-0.04,-0.0391,-0.0326,-0.0316,-0.0298,-0.0231,-0.0206,-0.0168,-0.0115,-0.0092,-0.0038,0.0017,0.0062,0.0085,0.0132,0.0153,0.0197,0.0157,0.015,0.0144,0.0146,0.0196,0.0194,0.0218,0.0218,0.0218,0,0,-0.0418,-0.0385,-0.0379,-0.0328,-0.0289,-0.0276,-0.0214,-0.0185,-0.017,-0.0088,-0.0058,-0.0005,0.0063,0.0091,0.0108,0.0124,0.0159,0.0143,0.0137,0.0143,0.0195,0.0193,0.0191,0.0217,0.0217,0.0217,0,0,-0.0456,-0.0422,-0.043,-0.0402,-0.0354,-0.0313,-0.0312,-0.0244,-0.0209,-0.0176,-0.0112,-0.0068,-0.0002,0.0047,0.008,0.0063,0.0123,0.0075,0.0034,0.0081,0.008,0.0079,0.0123,0.0127,0.0071,0.0071,0.007,0,-0.0482,-0.048,-0.0426,-0.0427,-0.0412,-0.0339,-0.0348,-0.0303,-0.0232,-0.0207,-0.0181,-0.0077,-0.0022,0.0021,0.0022,0.0047,0.0085,0.0055,0.0072,0.0072,0.0073,0.0118,0.0123,0.0066,0.0066,0.0067,0.0067,0,-0.0523,-0.0524,-0.0527,-0.0508,-0.0487,-0.0481,-0.0419,-0.039,-0.0344,-0.0295,-0.0241,-0.0161,-0.0099,-0.0076,-0.0028,0.0003,0.003,0.0056,0.0087,0.0065,0.0114,0.0121,0.0059,0.0061,0.0062,0.0064,0,0,-0.057,-0.056,-0.0563,-0.0575,-0.0531,-0.0519,-0.0496,-0.0452,-0.0436,-0.0364,-0.0337,-0.0251,-0.0202,-0.0161,-0.0097,-0.0049,-0.0011,0.0001,0.0006,0.0036,0.0093,0.0154,0.0168,0.0016,0.0017,0.0018,0.0121,0,-0.0619,-0.0657,-0.0629,-0.0663,-0.0676,-0.0612,-0.0597,-0.0547,-0.0489,-0.0444,-0.035,-0.0303,-0.0236,-0.0208,-0.0151,-0.0041,0.0006,-0.0041,0.0119,0.0124,0.0174,0.0178,0.0226,0.0326,0.0129,0.013,0.0131,0,-0.0666,-0.0686,-0.0736,-0.0743,-0.0741,-0.0745,-0.0709,-0.0687,-0.0599,-0.0552,-0.0484,-0.0404,-0.0316,-0.0261,-0.0097,-0.013,-0.0028,0.0057,0.0063,0.0161,0.0199,0.0321,0.0348,0.054,0.0143,0.0142,0.0142,0,-0.0732,-0.0759,-0.0807,-0.0809,-0.0801,-0.0802,-0.0788,-0.0721,-0.0701,-0.062,-0.0593,-0.0479,-0.0419,-0.028,-0.0095,-0.0097,0.0091,0.0106,0.0256,0.0261,0.0356,0.0368,0.0583,0.0217,0.0217,0.0217,0.0216,0,-0.0795,-0.0831,-0.0843,-0.0869,-0.0915,-0.0877,-0.0897,-0.0855,-0.0797,-0.0781,-0.066,-0.0612,-0.042,-0.0281,-0.0119,0.0098,0.0072,0.0257,0.0296,0.0324,0.0331,0.0548,0.0617,0.022,0.022,0.0219,0.0218,0,-0.0863,-0.087,-0.0928,-0.0944,-0.0951,-0.0983,-0.0978,-0.098,-0.0914,-0.0887,-0.0864,-0.071,-0.0522,-0.0312,-0.0078,0.0067,0.0392,0.0348,0.0368,0.0409,0.0719,0.0779,0.1013,0.1132,0.0522,0.0524,0.0526,0,-0.0903,-0.0942,-0.0997,-0.1036,-0.1048,-0.1082,-0.1098,-0.1048,-0.1044,-0.0939,-0.0929,-0.0745,-0.0595,-0.0224,0.0066,0.0362,0.0501,0.0566,0.0575,0.0758,0.0854,0.0884,0.0969,0.066,0.0663,0.0665,0.0667,0,-0.0977,-0.0997,-0.1044,-0.1129,-0.1168,-0.1214,-0.1228,-0.1238,-0.1168,-0.111,-0.0995,-0.0861,-0.0488,-0.0118,0.0268,0.0443,0.0717,0.0622,0.0815,0.0989,0.1033,0.1159,0.0563,0.0687,0.0685,0.0684,0.0683,0.0682,-0.1022,-0.1079,-0.114,-0.1218,-0.127,-0.1322,-0.1343,-0.1325,-0.1295,-0.1171,-0.1044,-0.0784,-0.0255,0.031,0.052,0.0974,0.0914,0.1104,0.1163,0.1177,0.1301,0.0748,0.0913,0.0913,0.0912,0.0911,0.0911,0,-0.1078,-0.1137,-0.1221,-0.1307,-0.1373,-0.1377,-0.1408,-0.1385,-0.133,-0.1157,-0.0988,-0.039,0.0135,0.0623,0.1249,0.1502,0.1554,0.1615,0.1681,0.1744,0.1271,0.1288,0.1538,0.1538,0.1538,0.1538,0.1537,0.1537,-0.1107,-0.1201,-0.1248,-0.1369,-0.1422,-0.1464,-0.147,-0.1404,-0.1272,-0.0932,-0.0587,-0.0317,0.0391,0.1364,0.1937,0.1986,0.2213,0.2179,0.2301,0.1985,0.1942,0.19,0.1936,0.2318,0.2319,0.2765,0.277,0.2773]}],[{"header":{"parameterUnit":"m.s-1","parameterCategory":2,"la1":30.2991,"la2":30.254,"lo1":-89.0895,"lo2":-89.0444,"dy":0.0017,"dx":0.0017,"nx":28,"ny":28,"refTime":"2024-04-13T21:00:00:Z","depth":"2","parameterNumber":2,"parameterNumberName":"U-component_of_CURRENTS"},"data":[0,0,0,0,0,0,0,0,0,0,0,0,0,0,0,0,0,0,0,0,0,0,0,0,0,0,0,0,0,0,0,0,0,0,0,0,0,0,0,0,0,0,0,0,0,0,0,0,0,0,0,0,0,0,0,0,0,0,-0.2383,-0.2383,0,-0.242,-0.242,-0.2421,-0.241,-0.2409,-0.2409,-0.2408,-0.2414,-0.2415,-0.2416,0,0,0,0,0,0,0,0,0,0,0,0,0,-0.2301,-0.2302,-0.2382,-0.2383,-0.2384,-0.242,-0.242,-0.2421,-0.241,-0.2409,-0.2409,-0.2408,-0.2414,-0.2415,-0.2416,0,0,0,0,0,0,0,0,0,0,0,0,0,-0.2335,-0.2303,-0.2382,-0.2385,-0.2386,-0.242,-0.242,-0.2421,-0.241,-0.2409,-0.2408,-0.2408,-0.2414,-0.2415,-0.2416,-0.2437,0,0,-0.2419,-0.2419,0,0,0,0,0,0,0,0,-0.2333,-0.2337,-0.2384,-0.2385,-0.2386,-0.2412,-0.2394,-0.2426,-0.241,-0.2398,-0.2408,-0.2407,-0.2413,-0.2414,-0.2419,-0.2437,-0.2437,-0.2419,-0.2419,-0.242,-0.242,0,0,0,0,0,0,0,-0.233,-0.2336,-0.2394,-0.2385,-0.2386,-0.2385,-0.2388,-0.24,-0.2406,-0.2399,-0.2399,-0.2408,-0.2413,-0.2418,-0.2419,-0.2438,-0.2419,-0.242,-0.242,-0.2421,-0.2476,-0.2476,0,0,0,0,0,0,-0.2333,-0.2334,-0.2393,-0.2396,-0.236,-0.2387,-0.2391,-0.2402,-0.2407,-0.2408,-0.2409,-0.2407,-0.2417,-0.2418,-0.2419,-0.2451,-0.242,-0.2421,-0.2421,-0.2475,-0.2476,-0.2477,0,0,0,0,0,0,-0.2331,-0.2338,-0.2392,-0.2367,-0.2375,-0.2389,-0.2402,-0.2403,-0.2412,-0.2415,-0.2415,-0.2416,-0.2416,-0.2418,-0.2436,-0.2451,-0.2421,-0.2422,-0.2474,-0.2475,-0.2476,-0.2511,0,0,0,0,0,0,-0.2328,-0.2337,-0.2339,-0.2368,-0.2376,-0.2409,-0.2403,-0.2405,-0.242,-0.2419,-0.2422,-0.2422,-0.2416,-0.2434,-0.2437,-0.2452,-0.2423,-0.2473,-0.2474,-0.2476,-0.2508,-0.2513,-0.2517,0,0,0,0,0,-0.2325,-0.2326,-0.2339,-0.2346,-0.2382,-0.2409,-0.2413,-0.2419,-0.2421,-0.2424,-0.2433,-0.2422,-0.2446,-0.2436,-0.2438,-0.2454,-0.2472,-0.2474,-0.2476,-0.2506,-0.2512,-0.2517,0,0,0,0,0,0,-0.2279,-0.2327,-0.2341,-0.2353,-0.2382,-0.2408,-0.2408,-0.2426,-0.2436,-0.2431,-0.2437,-0.2437,-0.2457,-0.2454,-0.2443,-0.2475,-0.2456,-0.2459,-0.2479,-0.2484,-0.2488,-0.2481,-0.2423,0,0,0,0,0,-0.2277,-0.2293,-0.2338,-0.2345,-0.236,-0.239,-0.2401,-0.2412,-0.243,-0.2434,-0.2443,-0.2451,-0.2468,-0.2474,-0.2481,-0.2503,-0.2484,-0.2514,-0.2518,-0.2522,-0.2518,-0.2513,-0.2516,-0.2483,-0.2483,-0.2483,0,0,-0.226,-0.2287,-0.2295,-0.2337,-0.2355,-0.2388,-0.2393,-0.241,-0.2438,-0.2434,-0.2459,-0.2466,-0.2477,-0.2498,-0.2507,-0.2498,-0.252,-0.2524,-0.2527,-0.2521,-0.2515,-0.2518,-0.2521,-0.2485,-0.2484,-0.2484,0,0,-0.2241,-0.2261,-0.2276,-0.2309,-0.2348,-0.2374,-0.2385,-0.2422,-0.2434,-0.2468,-0.2473,-0.2491,-0.2513,-0.2526,-0.2537,-0.2572,-0.2542,-0.2573,-0.259,-0.2586,-0.2588,-0.259,-0.2561,-0.256,-0.2576,-0.2576,-0.2576,0,-0.2219,-0.2251,-0.2281,-0.2313,-0.2339,-0.2374,-0.2403,-0.2429,-0.2467,-0.2481,-0.2475,-0.252,-0.2528,-0.2566,-0.2576,-0.2581,-0.2561,-0.257,-0.2591,-0.2592,-0.2593,-0.2563,-0.2561,-0.2578,-0.2578,-0.2578,-0.2577,0,-0.2225,-0.2255,-0.2263,-0.2323,-0.2354,-0.2377,-0.2432,-0.2456,-0.2478,-0.2506,-0.2539,-0.2554,-0.2577,-0.2589,-0.2595,-0.2617,-0.2593,-0.2595,-0.2575,-0.2598,-0.2565,-0.2563,-0.2581,-0.258,-0.2579,-0.2579,0,0,-0.216,-0.2252,-0.2253,-0.2289,-0.2362,-0.2386,-0.2437,-0.2489,-0.2519,-0.2548,-0.2579,-0.2615,-0.2616,-0.2628,-0.2638,-0.264,-0.2634,-0.2621,-0.262,-0.2586,-0.26,-0.2508,-0.2497,-0.2636,-0.2636,-0.2636,-0.257,0,-0.2154,-0.2212,-0.2263,-0.2317,-0.2353,-0.2411,-0.2457,-0.2508,-0.2546,-0.2581,-0.2604,-0.2632,-0.2636,-0.2644,-0.265,-0.2642,-0.263,-0.265,-0.2587,-0.2584,-0.2496,-0.2492,-0.2309,-0.2228,-0.2567,-0.2567,-0.2567,0,-0.2141,-0.2185,-0.224,-0.2327,-0.2346,-0.2385,-0.2457,-0.2503,-0.2568,-0.2593,-0.2628,-0.2646,-0.2668,-0.2659,-0.2647,-0.2657,-0.2627,-0.2612,-0.261,-0.2508,-0.2488,-0.2262,-0.2211,-0.2562,-0.2563,-0.2563,-0.2563,0,-0.2079,-0.2165,-0.2205,-0.2237,-0.2342,-0.237,-0.2418,-0.2495,-0.2534,-0.2593,-0.2615,-0.265,-0.2652,-0.2642,-0.2621,-0.263,-0.2587,-0.2597,-0.2482,-0.2474,-0.2296,-0.2273,-0.257,-0.257,-0.257,-0.257,-0.257,0,-0.2054,-0.2084,-0.2178,-0.2203,-0.2246,-0.2329,-0.2377,-0.2434,-0.2507,-0.2539,-0.2605,-0.2623,-0.2645,-0.2634,-0.2614,-0.253,-0.2578,-0.2471,-0.245,-0.2302,-0.2281,-0.256,-0.2559,-0.2568,-0.2568,-0.2569,-0.2569,0,-0.1987,-0.2051,-0.2102,-0.2197,-0.2223,-0.225,-0.2348,-0.2377,-0.2458,-0.2498,-0.2513,-0.2587,-0.256,-0.2566,-0.2536,-0.2497,-0.2447,-0.2402,-0.2215,-0.2173,-0.2337,-0.2339,-0.2263,-0.2259,-0.2256,-0.2253,-0.2251,0,-0.1962,-0.1981,-0.2074,-0.2091,-0.2132,-0.2188,-0.2219,-0.2328,-0.2365,-0.2465,-0.2467,-0.2482,-0.2455,-0.2386,-0.2312,-0.2231,-0.2338,-0.2033,-0.2022,-0.2316,-0.2305,-0.2313,-0.2319,-0.1796,-0.179,-0.1786,-0.1782,0,-0.1899,-0.1931,-0.1964,-0.2008,-0.204,-0.2083,-0.2141,-0.2168,-0.2278,-0.231,-0.2332,-0.232,-0.2255,-0.2088,-0.2,-0.1944,-0.2036,-0.1932,-0.2278,-0.191,-0.1873,-0.1864,-0.1886,-0.174,-0.1744,-0.1747,-0.1749,-0.1751,-0.1828,-0.1834,-0.1872,-0.19,-0.1933,-0.1947,-0.1933,-0.1998,-0.2022,-0.2029,-0.2114,-0.2027,-0.2013,-0.1767,-0.1665,-0.1586,-0.1734,-0.1674,-0.169,-0.1711,-0.1676,-0.1636,-0.145,-0.1453,-0.1455,-0.1457,-0.1458,0,-0.173,-0.1742,-0.1761,-0.1782,-0.1759,-0.1823,-0.1846,-0.1801,-0.1764,-0.1795,-0.1767,-0.1578,-0.1451,-0.1445,-0.1239,-0.1199,-0.1201,-0.1163,-0.1171,-0.1213,-0.1251,-0.1195,-0.084,-0.0838,-0.0836,-0.0835,0,0,-0.1674,-0.1649,-0.1662,-0.159,-0.1595,-0.1517,-0.1493,-0.1446,-0.1435,-0.1354,-0.1307,-0.1383,-0.1411,-0.1138,-0.1062,-0.0916,-0.1061,-0.0867,-0.1362,-0.1415,-0.145,-0.154,-0.15,0,0,0,0,0]},{"header":{"parameterUnit":"m.s-1","parameterCategory":2,"la1":30.2991,"la2":30.254,"lo1":-89.0895,"lo2":-89.0444,"dy":0.0017,"dx":0.0017,"nx":28,"ny":28,"refTime":"2024-04-13T21:00:00:Z","depth":"2","parameterNumber":3,"parameterNumberName":"V-component_of_CURRENTS"},"data":[0,0,0,0,0,0,0,0,0,0,0,0,0,0,0,0,0,0,0,0,0,0,0,0,0,0,0,0,0,0,0,0,0,0,0,0,0,0,0,0,0,0,0,0,0,0,0,0,0,0,0,0,0,0,0,0,0,0,-0.0229,-0.0228,0,-0.0134,-0.0133,-0.0132,-0.0072,-0.0072,-0.0072,-0.0071,0.0053,0.0056,0.0059,0,0,0,0,0,0,0,0,0,0,0,0,0,-0.0312,-0.0311,-0.0229,-0.0228,-0.0227,-0.0134,-0.0133,-0.0131,-0.0072,-0.0072,-0.0072,-0.0071,0.0052,0.0056,0.006,0,0,0,0,0,0,0,0,0,0,0,0,0,-0.0253,-0.0311,-0.0229,-0.0186,-0.0181,-0.0134,-0.0133,-0.0131,-0.0073,-0.0072,-0.0072,-0.0071,0.0051,0.0056,0.006,0.0078,0,0,0.0074,0.0076,0,0,0,0,0,0,0,0,-0.0256,-0.025,-0.0194,-0.0189,-0.0183,-0.0114,-0.0116,-0.006,-0.0073,-0.0114,-0.0071,-0.0071,-0.0,0.0008,0.0025,0.0084,0.009,0.0074,0.0077,0.0079,0.008,0,0,0,0,0,0,0,-0.026,-0.0253,-0.0191,-0.0192,-0.0186,-0.0155,-0.0147,-0.0105,-0.006,-0.011,-0.0106,-0.0095,0.0003,0.002,0.0028,0.0091,0.0074,0.0078,0.0081,0.0083,0.0179,0.0179,0,0,0,0,0,0,-0.0275,-0.0257,-0.0194,-0.0188,-0.0219,-0.0154,-0.0145,-0.0137,-0.0061,-0.005,-0.0096,-0.0093,0.0012,0.0023,0.0033,0.0055,0.0079,0.0083,0.0086,0.0179,0.0179,0.0178,0,0,0,0,0,0,-0.0277,-0.0271,-0.0198,-0.022,-0.0209,-0.0154,-0.0145,-0.0135,-0.0117,-0.0051,-0.0038,-0.0088,0.0013,0.0027,0.0067,0.006,0.0085,0.0089,0.0179,0.0179,0.0179,0.0101,0,0,0,0,0,0,-0.028,-0.0272,-0.0275,-0.0222,-0.0208,-0.0178,-0.0146,-0.0134,-0.0112,-0.0107,-0.004,-0.0028,0.0015,0.006,0.0071,0.0067,0.0093,0.0179,0.0179,0.0179,0.0104,0.0098,0.0093,0,0,0,0,0,-0.0284,-0.029,-0.0276,-0.0268,-0.0213,-0.0178,-0.0169,-0.0128,-0.0112,-0.0109,-0.0063,-0.003,0.0066,0.0063,0.0077,0.0074,0.0179,0.0179,0.0179,0.0106,0.0099,0.0093,0,0,0,0,0,0,-0.0328,-0.0283,-0.0266,-0.0259,-0.0225,-0.0169,-0.0162,-0.0134,-0.0095,-0.0092,-0.0029,-0.0014,0.0018,0.0057,0.0052,0.0101,0.0127,0.013,0.0067,0.0062,0.0056,0.0042,0.0097,0,0,0,0,0,-0.034,-0.0335,-0.0285,-0.0282,-0.0268,-0.0217,-0.0199,-0.0172,-0.0129,-0.0111,-0.0063,-0.0014,0.0027,0.0052,0.0093,0.0121,0.0165,0.0128,0.0123,0.0118,0.0116,0.0177,0.0176,0.0177,0.0177,0.0177,0,0,-0.0357,-0.0332,-0.0329,-0.0291,-0.0263,-0.0254,-0.0205,-0.0184,-0.0174,-0.0104,-0.0078,-0.0031,0.003,0.0059,0.0077,0.0092,0.0139,0.0117,0.0113,0.0114,0.0176,0.0176,0.0176,0.0177,0.0177,0.0177,0,0,-0.0393,-0.0367,-0.0376,-0.0353,-0.0316,-0.0285,-0.0283,-0.0229,-0.0202,-0.0171,-0.012,-0.0077,-0.0016,0.0029,0.0058,0.0051,0.0107,0.0061,0.0027,0.0085,0.0086,0.0087,0.0131,0.0137,0.0061,0.0061,0.0061,0,-0.0416,-0.0418,-0.0373,-0.0376,-0.0365,-0.0305,-0.0314,-0.0278,-0.0218,-0.0196,-0.0176,-0.0081,-0.003,0.0014,0.0011,0.0038,0.0077,0.0043,0.0078,0.008,0.0082,0.0128,0.0135,0.0057,0.0057,0.0058,0.0058,0,-0.0453,-0.0458,-0.0461,-0.0447,-0.043,-0.0427,-0.0375,-0.0349,-0.0311,-0.027,-0.0219,-0.0146,-0.0089,-0.0067,-0.0028,0.0011,0.0033,0.0061,0.009,0.0077,0.0127,0.0135,0.0052,0.0053,0.0054,0.0055,0,0,-0.0496,-0.0491,-0.0493,-0.0505,-0.0469,-0.046,-0.0441,-0.0402,-0.0387,-0.0323,-0.0296,-0.022,-0.0174,-0.0138,-0.008,-0.0026,0.0022,0.0018,0.0023,0.0055,0.0143,0.0179,0.0193,0.0056,0.0057,0.0058,0.0167,0,-0.0539,-0.0574,-0.0552,-0.0583,-0.0596,-0.0541,-0.0529,-0.0485,-0.0433,-0.0389,-0.0302,-0.0258,-0.0203,-0.0176,-0.0115,-0.0009,0.0043,-0.0011,0.0157,0.0162,0.0191,0.0204,0.0174,0.027,0.0176,0.0177,0.0179,0,-0.058,-0.0599,-0.0644,-0.0653,-0.0652,-0.0657,-0.0625,-0.0606,-0.0524,-0.0482,-0.0415,-0.0342,-0.0254,-0.0207,-0.004,-0.0077,0.0022,0.0104,0.0111,0.0179,0.0216,0.0272,0.0291,0.0194,0.0193,0.0192,0.0191,0,-0.0636,-0.0662,-0.0706,-0.0708,-0.0704,-0.0706,-0.0696,-0.0635,-0.0616,-0.0539,-0.051,-0.0398,-0.0337,-0.0199,-0.0027,-0.0031,0.016,0.0179,0.0303,0.0306,0.0332,0.0336,0.0294,0.0294,0.0294,0.0293,0.0293,0,-0.069,-0.0722,-0.0737,-0.076,-0.0802,-0.0771,-0.079,-0.0753,-0.0698,-0.0678,-0.0567,-0.0515,-0.0331,-0.0194,-0.0043,0.016,0.0152,0.0303,0.0342,0.0303,0.0303,0.0279,0.0276,0.0297,0.0296,0.0296,0.0295,0,-0.0746,-0.0755,-0.0808,-0.0825,-0.0833,-0.0864,-0.0862,-0.0863,-0.0802,-0.0769,-0.0746,-0.0597,-0.0416,-0.0222,0.0009,0.0139,0.0329,0.0401,0.0336,0.0367,0.0436,0.0427,0.0547,0.0549,0.0551,0.0553,0.0554,0,-0.078,-0.0815,-0.0868,-0.0904,-0.0917,-0.0951,-0.0967,-0.0924,-0.0917,-0.081,-0.0794,-0.062,-0.0479,-0.0132,0.0119,0.0388,0.0388,0.051,0.0503,0.0438,0.0465,0.0453,0.0442,0.0503,0.0504,0.0504,0.0505,0,-0.0843,-0.0863,-0.0905,-0.0984,-0.1023,-0.1064,-0.1078,-0.1084,-0.1019,-0.0958,-0.084,-0.0714,-0.0385,-0.0088,0.0248,0.0397,0.0464,0.0533,0.05,0.044,0.0405,0.0428,0.0417,0.0511,0.051,0.051,0.051,0.0509,-0.0884,-0.0934,-0.0991,-0.1061,-0.1111,-0.1155,-0.1175,-0.1154,-0.1121,-0.0996,-0.0875,-0.0642,-0.037,0.0122,0.0354,0.056,0.0556,0.0615,0.0609,0.0604,0.0576,0.0546,0.0673,0.0673,0.0674,0.0674,0.0674,0,-0.0933,-0.0985,-0.1062,-0.114,-0.1198,-0.1205,-0.1228,-0.1204,-0.1145,-0.0986,-0.0824,-0.0493,-0.0156,0.0123,0.0467,0.0669,0.0636,0.0688,0.0613,0.0607,0.0601,0.057,0.0667,0.0667,0.0668,0.0668,0,0,-0.096,-0.1042,-0.1083,-0.1189,-0.1239,-0.1277,-0.1281,-0.1214,-0.1094,-0.0917,-0.0725,-0.047,-0.0128,0.0119,0.0361,0.0532,0.0512,0.0535,0.0521,0.0398,0.039,0.054,0.0483,0,0,0,0,0]}],[{"header":{"parameterUnit":"m.s-1","parameterCategory":2,"la1":30.2991,"la2":30.254,"lo1":-89.0895,"lo2":-89.0444,"dy":0.0017,"dx":0.0017,"nx":28,"ny":28,"refTime":"2024-04-13T21:00:00:Z","depth":"4","parameterNumber":2,"parameterNumberName":"U-component_of_CURRENTS"},"data":[0,0,0,0,0,0,0,0,0,0,0,0,0,0,0,0,0,0,0,0,0,0,0,0,0,0,0,0,0,0,0,0,0,0,0,0,0,0,0,0,0,0,0,0,0,0,0,0,0,0,0,0,0,0,0,0,0,0,-0.1646,-0.1647,0,-0.1704,-0.1704,-0.1705,-0.1705,-0.1704,-0.1704,-0.1703,-0.181,-0.1813,-0.1816,0,0,0,0,0,0,0,0,0,0,0,0,0,-0.1551,-0.1552,-0.1646,-0.1647,-0.1648,-0.1704,-0.1704,-0.1705,-0.1705,-0.1704,-0.1704,-0.1703,-0.1809,-0.1813,-0.1817,0,0,0,0,0,0,0,0,0,0,0,0,0,-0.1597,-0.1553,-0.1646,-0.1656,-0.1657,-0.1704,-0.1704,-0.1705,-0.1705,-0.1704,-0.1703,-0.1703,-0.1807,-0.1812,-0.1817,-0.1866,0,0,-0.1833,-0.1835,0,0,0,0,0,0,0,0,-0.1594,-0.16,-0.1653,-0.1655,-0.1657,-0.1698,-0.171,-0.1762,-0.1705,-0.1685,-0.1703,-0.1702,-0.1779,-0.1786,-0.1796,-0.1871,-0.1876,-0.1833,-0.1836,-0.1839,-0.184,0,0,0,0,0,0,0,-0.1591,-0.1598,-0.1667,-0.1654,-0.1657,-0.1663,-0.1668,-0.172,-0.1736,-0.1687,-0.1687,-0.1697,-0.178,-0.1791,-0.1798,-0.1877,-0.1833,-0.1838,-0.1841,-0.1843,-0.2016,-0.2017,0,0,0,0,0,0,-0.1588,-0.1595,-0.1665,-0.1669,-0.1625,-0.1665,-0.1671,-0.1684,-0.1734,-0.1741,-0.1698,-0.1697,-0.1782,-0.1792,-0.1802,-0.1893,-0.1838,-0.1843,-0.1846,-0.2014,-0.2016,-0.2018,0,0,0,0,0,0,-0.1586,-0.1594,-0.1663,-0.1634,-0.1644,-0.1668,-0.1683,-0.1686,-0.1722,-0.1742,-0.1749,-0.1733,-0.1782,-0.1795,-0.1868,-0.1896,-0.1846,-0.185,-0.2012,-0.2015,-0.2017,-0.2057,0,0,0,0,0,0,-0.1583,-0.1593,-0.1614,-0.1634,-0.1645,-0.1702,-0.1684,-0.1688,-0.1728,-0.1728,-0.1775,-0.1782,-0.1782,-0.186,-0.1873,-0.1902,-0.1854,-0.201,-0.2013,-0.2016,-0.2054,-0.206,-0.2066,0,0,0,0,0,-0.158,-0.16,-0.1615,-0.1624,-0.1669,-0.1704,-0.1711,-0.1723,-0.1731,-0.1752,-0.1786,-0.1782,-0.1886,-0.1867,-0.1881,-0.1912,-0.2009,-0.2012,-0.2016,-0.2051,-0.2059,-0.2066,0,0,0,0,0,0,-0.1567,-0.1604,-0.1619,-0.1651,-0.1684,-0.1705,-0.1727,-0.1747,-0.1791,-0.1798,-0.1817,-0.1827,-0.1895,-0.1907,-0.1884,-0.1969,-0.1942,-0.1949,-0.1964,-0.1972,-0.1978,-0.1964,-0.1858,0,0,0,0,0,-0.1578,-0.1605,-0.1641,-0.1669,-0.1688,-0.172,-0.1742,-0.1756,-0.1791,-0.1809,-0.1845,-0.1881,-0.1918,-0.1948,-0.198,-0.2046,-0.203,-0.207,-0.2077,-0.2082,-0.208,-0.2088,-0.2094,-0.2029,-0.2029,-0.2029,0,0,-0.1581,-0.1606,-0.1622,-0.167,-0.1695,-0.173,-0.1731,-0.1772,-0.1806,-0.1818,-0.1886,-0.1913,-0.1941,-0.1997,-0.2028,-0.2014,-0.2092,-0.2086,-0.209,-0.2086,-0.2092,-0.2098,-0.2103,-0.2031,-0.2031,-0.2031,0,0,-0.1588,-0.1626,-0.1648,-0.1683,-0.1732,-0.1755,-0.1777,-0.1823,-0.1849,-0.192,-0.1927,-0.1976,-0.2047,-0.206,-0.2078,-0.2146,-0.2124,-0.216,-0.2186,-0.2194,-0.2199,-0.2203,-0.2182,-0.2184,-0.2163,-0.2163,-0.2163,0,-0.1592,-0.1626,-0.1661,-0.1693,-0.1726,-0.1771,-0.1806,-0.1845,-0.1911,-0.194,-0.1946,-0.2042,-0.207,-0.2125,-0.214,-0.216,-0.2149,-0.2154,-0.22,-0.2204,-0.2207,-0.2185,-0.2187,-0.2166,-0.2165,-0.2165,-0.2165,0,-0.1606,-0.165,-0.1669,-0.1725,-0.1767,-0.1807,-0.1862,-0.1913,-0.1959,-0.1992,-0.2069,-0.2106,-0.2155,-0.2174,-0.2182,-0.2227,-0.2206,-0.2204,-0.2176,-0.2216,-0.219,-0.2191,-0.2169,-0.2168,-0.2168,-0.2167,0,0,-0.1565,-0.166,-0.1668,-0.1707,-0.179,-0.1821,-0.1892,-0.1959,-0.2005,-0.207,-0.2123,-0.219,-0.2208,-0.2229,-0.2247,-0.226,-0.2276,-0.2247,-0.2246,-0.2216,-0.2274,-0.2114,-0.2099,-0.2283,-0.2284,-0.2285,-0.2242,0,-0.1567,-0.1629,-0.168,-0.1751,-0.179,-0.1862,-0.1922,-0.1991,-0.2054,-0.2117,-0.2163,-0.2221,-0.223,-0.2258,-0.2276,-0.2282,-0.2282,-0.2287,-0.2248,-0.2246,-0.2091,-0.2096,-0.2287,-0.2242,-0.2242,-0.2242,-0.2242,0,-0.1555,-0.1602,-0.167,-0.177,-0.1794,-0.1849,-0.1949,-0.2008,-0.2102,-0.2149,-0.2211,-0.2248,-0.2296,-0.2291,-0.2311,-0.2314,-0.2296,-0.2289,-0.2287,-0.2123,-0.2088,-0.2197,-0.2243,-0.2243,-0.2243,-0.2243,-0.2243,0,-0.1493,-0.1593,-0.1649,-0.1685,-0.1802,-0.1852,-0.1916,-0.2017,-0.2071,-0.2167,-0.2207,-0.2272,-0.23,-0.2307,-0.2304,-0.2311,-0.2298,-0.2304,-0.2138,-0.2127,-0.2267,-0.2263,-0.2299,-0.2299,-0.2299,-0.23,-0.23,0,-0.1462,-0.151,-0.1631,-0.1662,-0.1732,-0.1824,-0.1904,-0.1977,-0.2076,-0.2122,-0.2215,-0.2245,-0.2306,-0.2312,-0.2304,-0.2208,-0.2296,-0.2128,-0.2102,-0.2284,-0.2283,-0.2266,-0.2263,-0.2298,-0.2298,-0.2299,-0.2299,0,-0.1389,-0.147,-0.1541,-0.1666,-0.1709,-0.1758,-0.189,-0.1935,-0.2042,-0.2102,-0.2131,-0.2226,-0.2215,-0.2244,-0.2241,-0.2178,-0.2127,-0.2071,-0.2244,-0.2232,-0.1949,-0.1949,-0.1873,-0.1867,-0.1861,-0.1857,-0.1854,0,-0.1358,-0.1388,-0.1524,-0.1561,-0.1625,-0.1715,-0.1767,-0.1899,-0.1943,-0.2067,-0.2072,-0.2113,-0.2149,-0.2008,-0.2063,-0.2001,-0.1984,-0.1944,-0.1959,-0.1921,-0.1905,-0.1913,-0.1919,-0.1845,-0.1844,-0.1843,-0.1841,0,-0.1289,-0.1349,-0.1401,-0.1481,-0.1548,-0.1613,-0.1699,-0.1719,-0.1846,-0.1962,-0.1947,-0.1934,-0.1908,-0.1893,-0.1846,-0.1819,-0.1968,-0.1891,-0.1902,-0.1915,-0.1888,-0.1878,-0.1891,-0.1824,-0.1826,-0.1828,-0.1829,0,-0.1231,-0.125,-0.1322,-0.1377,-0.1452,-0.1477,-0.1546,-0.1583,-0.1639,-0.1777,-0.1764,-0.1808,-0.1882,-0.1796,-0.1768,-0.1707,-0.1684,-0.164,-0.1663,-0.1684,-0.1642,-0.1581,-0.1383,0,0,0,0,0,-0.1165,-0.1168,-0.1211,-0.1262,-0.1328,-0.1369,-0.1479,-0.1549,-0.1674,-0.1607,-0.168,-0.1648,-0.1595,-0.1633,-0.1525,-0.1679,-0.1692,-0.1549,-0.1655,-0.1725,-0.1746,-0.1714,0,0,0,0,0,0,-0.1117,-0.1151,-0.1166,-0.1142,-0.1151,-0.121,-0.1269,-0.136,-0.134,-0.1468,-0.1443,-0.1537,-0.1507,-0.161,-0.1484,-0.149,-0.1521,-0.1586,-0.1581,-0.1713,-0.1732,-0.1749,-0.1723,0,0,0,0,0]},{"header":{"parameterUnit":"m.s-1","parameterCategory":2,"la1":30.2991,"la2":30.254,"lo1":-89.0895,"lo2":-89.0444,"dy":0.0017,"dx":0.0017,"nx":28,"ny":28,"refTime":"2024-04-13T21:00:00:Z","depth":"4","parameterNumber":3,"parameterNumberName":"V-component_of_CURRENTS"},"data":[0,0,0,0,0,0,0,0,0,0,0,0,0,0,0,0,0,0,0,0,0,0,0,0,0,0,0,0,0,0,0,0,0,0,0,0,0,0,0,0,0,0,0,0,0,0,0,0,0,0,0,0,0,0,0,0,0,0,-0.0189,-0.0188,0,-0.0137,-0.0136,-0.0136,-0.0107,-0.0107,-0.0107,-0.0107,-0.0009,-0.0006,-0.0004,0,0,0,0,0,0,0,0,0,0,0,0,0,-0.0226,-0.0226,-0.0189,-0.0188,-0.0188,-0.0137,-0.0136,-0.0136,-0.0107,-0.0107,-0.0107,-0.0107,-0.001,-0.0007,-0.0004,0,0,0,0,0,0,0,0,0,0,0,0,0,-0.0196,-0.0225,-0.0189,-0.0167,-0.0165,-0.0137,-0.0136,-0.0135,-0.0107,-0.0107,-0.0107,-0.0106,-0.0011,-0.0007,-0.0003,0.0018,0,0,0.0008,0.001,0,0,0,0,0,0,0,0,-0.0197,-0.0194,-0.0171,-0.0169,-0.0166,-0.0128,-0.0113,-0.0082,-0.0107,-0.0129,-0.0107,-0.0106,-0.0045,-0.0038,-0.0029,0.0022,0.0026,0.0009,0.0011,0.0013,0.0014,0,0,0,0,0,0,0,-0.02,-0.0196,-0.0168,-0.017,-0.0167,-0.0147,-0.0143,-0.0107,-0.0087,-0.0127,-0.0125,-0.0119,-0.0043,-0.0033,-0.0026,0.0028,0.0009,0.0012,0.0014,0.0016,0.0101,0.0101,0,0,0,0,0,0,-0.0208,-0.0198,-0.017,-0.0167,-0.0182,-0.0147,-0.0142,-0.014,-0.0088,-0.0081,-0.0119,-0.0118,-0.0039,-0.0031,-0.0023,-0.0003,0.0013,0.0016,0.0018,0.0101,0.0101,0.0101,0,0,0,0,0,0,-0.0209,-0.0206,-0.0172,-0.0181,-0.0175,-0.0147,-0.0145,-0.0139,-0.0131,-0.0083,-0.0075,-0.0116,-0.0039,-0.0028,0.0005,0.0001,0.0018,0.0021,0.0101,0.0101,0.0101,0.0043,0,0,0,0,0,0,-0.0211,-0.0207,-0.0212,-0.0182,-0.0175,-0.0162,-0.0145,-0.0138,-0.0128,-0.0125,-0.0078,-0.0068,-0.0038,-0.0001,0.0009,0.0007,0.0024,0.0101,0.0101,0.0101,0.0044,0.0041,0.0037,0,0,0,0,0,-0.0212,-0.022,-0.0213,-0.021,-0.0182,-0.0162,-0.0157,-0.0135,-0.0128,-0.0127,-0.0094,-0.007,0.0006,0.0002,0.0013,0.0013,0.0101,0.0101,0.0101,0.0046,0.0041,0.0037,0,0,0,0,0,0,-0.024,-0.0217,-0.0209,-0.021,-0.019,-0.0157,-0.0156,-0.0139,-0.0114,-0.0113,-0.0068,-0.0056,-0.0031,0.0001,-0.0004,0.0037,0.0056,0.0059,0.0011,0.0007,0.0004,-0.0011,0.0027,0,0,0,0,0,-0.0249,-0.0251,-0.0221,-0.0225,-0.0216,-0.0187,-0.0178,-0.0163,-0.0135,-0.0124,-0.0089,-0.0052,-0.0021,-0.0,0.0031,0.0058,0.0097,0.0065,0.0061,0.0058,0.0054,0.0116,0.0118,0.01,0.01,0.01,0,0,-0.0262,-0.025,-0.0251,-0.0231,-0.0215,-0.0213,-0.0182,-0.0172,-0.0168,-0.0116,-0.01,-0.0065,-0.0018,0.0006,0.0021,0.0033,0.0082,0.0058,0.0054,0.0052,0.0116,0.0118,0.012,0.01,0.01,0.01,0,0,-0.029,-0.0278,-0.0287,-0.0274,-0.0254,-0.0235,-0.0235,-0.0202,-0.0186,-0.0165,-0.0129,-0.0094,-0.0047,-0.0012,0.001,0.0009,0.0057,0.0017,-0.0008,0.0052,0.0054,0.0056,0.01,0.0107,0.0019,0.0019,0.0019,0,-0.0307,-0.0314,-0.0287,-0.0292,-0.0289,-0.025,-0.026,-0.0237,-0.0198,-0.0182,-0.017,-0.0097,-0.0057,-0.002,-0.0023,0.0,0.0037,0.0002,0.0047,0.005,0.0054,0.0098,0.0106,0.0016,0.0016,0.0017,0.0017,0,-0.0336,-0.0345,-0.035,-0.0346,-0.0338,-0.034,-0.0307,-0.029,-0.0267,-0.0239,-0.0199,-0.0143,-0.0098,-0.008,-0.0053,-0.0012,0.0007,0.0031,0.0056,0.0052,0.0099,0.0108,0.0012,0.0013,0.0014,0.0015,0,0,-0.0364,-0.0371,-0.0374,-0.0387,-0.0368,-0.0366,-0.0356,-0.0331,-0.0323,-0.0277,-0.0257,-0.0198,-0.0162,-0.0134,-0.0087,-0.0034,0.0019,0.0002,0.0007,0.004,0.0144,0.013,0.0139,0.0054,0.0055,0.0056,0.0164,0,-0.0396,-0.0428,-0.0418,-0.0449,-0.0462,-0.0428,-0.0424,-0.0396,-0.036,-0.0328,-0.0258,-0.0225,-0.0184,-0.0162,-0.0103,-0.0011,0.0043,-0.0013,0.0147,0.0152,0.0136,0.015,0.0061,0.0171,0.0174,0.0175,0.0176,0,-0.0424,-0.0444,-0.0485,-0.0503,-0.0505,-0.0517,-0.0501,-0.0492,-0.0432,-0.0402,-0.0347,-0.0289,-0.0211,-0.0175,-0.002,-0.0057,0.0034,0.0108,0.0114,0.0128,0.0156,0.018,0.0194,0.0193,0.0192,0.019,0.0189,0,-0.0457,-0.0489,-0.0529,-0.0535,-0.0546,-0.0555,-0.0557,-0.0516,-0.0506,-0.0447,-0.0423,-0.0326,-0.0275,-0.0147,-0.0,-0.0004,0.0175,0.0193,0.0267,0.0267,0.0272,0.0269,0.0306,0.0306,0.0305,0.0305,0.0305,0,-0.0488,-0.0521,-0.0553,-0.0573,-0.0618,-0.0605,-0.0631,-0.0608,-0.0571,-0.0555,-0.0468,-0.042,-0.0263,-0.0141,-0.0008,0.0154,0.0175,0.0263,0.0297,0.0243,0.0236,0.0278,0.0274,0.0309,0.0308,0.0307,0.0307,0,-0.0516,-0.0536,-0.0588,-0.0622,-0.0638,-0.067,-0.0691,-0.0696,-0.0654,-0.0626,-0.0607,-0.0483,-0.0328,-0.0164,0.0045,0.0137,0.0299,0.0353,0.0273,0.03,0.035,0.0342,0.0442,0.0442,0.0443,0.0443,0.0443,0,-0.0532,-0.0563,-0.0633,-0.0672,-0.0695,-0.0738,-0.0762,-0.0743,-0.0737,-0.0653,-0.0632,-0.0492,-0.0391,-0.0105,0.0057,0.0297,0.0331,0.0402,0.0383,0.0343,0.0367,0.0357,0.0348,0.0444,0.0444,0.0444,0.0444,0,-0.0563,-0.0595,-0.0637,-0.0719,-0.0767,-0.0813,-0.0839,-0.0837,-0.0795,-0.076,-0.0629,-0.0476,-0.0307,-0.0102,0.0076,0.0253,0.0347,0.0407,0.0407,0.039,0.0347,0.0368,0.0358,0.0446,0.0445,0.0445,0.0445,0,-0.0585,-0.0626,-0.0688,-0.0755,-0.0821,-0.0859,-0.0873,-0.0842,-0.0821,-0.0714,-0.0672,-0.0473,-0.0362,-0.0123,0.0051,0.0208,0.0247,0.0291,0.0299,0.0299,0.0219,0.0141,0.0208,0,0,0,0,0,-0.06,-0.0646,-0.0716,-0.0786,-0.0851,-0.0883,-0.0906,-0.0902,-0.0858,-0.0768,-0.0712,-0.0542,-0.0275,-0.0158,-0.0001,0.0039,0.0252,0.0225,0.0301,0.0454,0.0452,0.038,0,0,0,0,0,0,-0.0611,-0.068,-0.0714,-0.0793,-0.0841,-0.0901,-0.0915,-0.0889,-0.0825,-0.0759,-0.0613,-0.0516,-0.026,-0.0362,-0.0001,0.0046,0.0113,0.0355,0.0358,0.0455,0.0453,0.0452,0.0378,0,0,0,0,0]}]]